CAPE
2 4 7 13 18 10 8 6 3 2 4 4 2 2 3 11 4 0 0 0 0 0 0 0 0 0 0 0 0 0 0 0 0 0 0 0 0 0 0 0 0 0 56 21 102
8 14 12 13 15 13 9 6 4 2 1 1 0 1 5 14 0 0 0 0 0 0 0 0 0 0 0 0 0 0 0 0 0 0 0 0 0 0 0 0 0 0 226 162 334
1 2 4 9 12 14 9 7 3 2 0 1 0 1 14 0 0 0 0 0 0 0 0 0 0 0 0 0 0 0 0 0 0 0 0 0 0 0 0 0 0 0 57 321 425
0 0 7 16 17 15 11 12 2 1 1 0 0 2 8 0 0 0 0 0 0 0 0 0 0 0 0 0 0 0 0 0 0 0 0 0 0 0 0 0 0 0 50 408 461
0 3 11 12 7 3 4 4 1 1 0 0 1 4 3 0 0 0 0 0 0 0 0 0 0 0 0 0 0 0 0 0 0 0 0 0 0 0 0 0 0 0 508 557 516
0 15 14 10 1 0 3 2 2 0 0 0 2 6 2 0 0 0 0 0 0 0 0 0 0 0 0 0 0 0 0 0 0 0 0 0 0 0 0 0 0 0 615 565 456
13 17 5 0 0 0 0 3 1 0 0 0 5 5 3 0 0 0 0 0 0 0 0 0 0 0 0 0 0 0 0 0 0 0 0 0 0 0 0 0 0 0 96 440 301
13 5 14 1 0 0 1 0 0 0 0 1 4 1 0 0 0 0 0 0 0 0 0 0 0 0 0 0 0 0 0 0 0 0 0 0 0 0 0 0 0 0 0 90 29
1 4 5 0 0 0 0 0 0 0 0 0 1 1 0 0 0 0 0 0 0 0 0 0 0 0 0 0 0 0 0 0 0 0 0 0 0 0 0 0 0 0 0 0 0
3 0 0 0 0 0 0 0 0 0 0 0 2 1 0 0 0 0 0 0 0 0 0 0 0 0 0 0 0 0 0 0 0 0 0 0 0 0 0 0 0 0 0 0 0
10 3 4 6 0 0 0 0 0 0 0 0 0 0 0 0 0 0 0 0 0 0 0 0 0 0 0 0 0 0 0 0 0 0 0 0 0 0 0 0 0 0 0 0 0
13 9 5 0 0 0 0 0 0 0 0 0 0 0 0 0 0 0 0 0 0 0 0 0 0 0 0 0 0 0 0 0 0 0 0 0 0 0 0 0 0 0 0 0 0
25 14 7 0 0 0 0 0 0 0 0 0 0 0 0 0 0 0 0 0 0 0 0 0 0 0 0 0 0 0 0 0 0 0 0 0 0 0 0 0 0 0 0 0 0
23 33 48 3 0 0 0 0 0 0 0 0 0 0 0 0 0 0 0 0 0 0 0 0 0 0 0 0 0 0 0 0 0 0 0 0 0 0 0 0 0 0 0 0 0
39 24 60 3 0 0 0 0 0 0 0 0 0 0 0 0 0 0 0 0 0 0 0 0 0 0 0 0 0 0 0 6 14 2 0 0 0 0 0 0 0 0 0 0 0
32 26 38 0 0 0 0 0 0 0 0 0 0 0 0 0 0 0 0 0 0 0 0 0 0 0 0 0 0 1 9 3 0 8 4 0 0 0 0 0 0 0 0 0 0
25 12 3 0 0 0 0 0 0 1 0 0 0 0 0 0 0 0 0 0 0 0 0 0 0 0 0 0 0 11 20 12 8 13 2 0 0 0 0 0 0 0 0 0 0
13 0 0 0 0 0 0 0 1 0 0 0 0 0 0 0 0 0 0 0 0 0 0 0 0 0 0 0 0 3 0 3 1 2 0 0 0 0 0 0 0 0 0 0 0
0 0 0 0 0 0 0 0 0 0 0 0 0 0 0 0 0 0 0 0 0 0 0 0 0 0 0 0 0 22 3 0 25 4 0 0 0 0 0 0 0 0 0 0 0
0 0 0 0 0 12 3 0 0 0 0 0 0 0 0 0 0 0 0 0 0 0 0 0 0 0 0 0 0 3 6 10 35 2 1 0 17 3 0 0 0 0 0 0 0
0 0 0 0 0 29 4 0 0 0 0 0 0 0 4 0 0 0 1 0 0 0 0 0 0 0 0 0 0 16 30 18 7 4 59 21 59 1 1 1 0 0 0 0 0
0 0 0 0 11 4 5 4 0 0 0 0 0 0 20 0 0 0 0 0 0 0 0 0 0 0 0 0 1 26 5 11 30 3 0 8 0 0 1 0 0 0 1 0 0
0 0 0 2 0 0 0 0 6 0 2 3 2 0 11 2 3 0 0 1 0 0 0 0 0 0 0 0 3 14 11 4 8 3 29 10 0 5 0 7 0 0 3 0 0
1 0 0 0 0 2 2 0 2 13 0 1 2 0 0 0 0 2 0 0 1 0 1 0 0 0 0 4 10 1 12 25 34 26 9 9 46 4 6 8 1 0 0 0 0
37 0 0 0 19 11 21 25 0 0 0 3 0 8 7 0 0 0 15 17 23 2 1 0 0 0 0 0 0 0 0 4 8 7 62 0 6 30 13 6 14 4 0 0 0
13 0 0 0 0 0 0 0 0 6 8 1 16 1 1 12 2 0 17 13 19 6 6 1 0 0 0 0 0 0 0 0 0 11 6 5 0 29 68 14 33 16 0 0 0
16 7 0 0 0 0 0 5 0 2 0 19 23 19 1 0 3 1 0 1 1 0 0 1 1 0 0 0 0 0 0 0 0 0 2 0 3 39 83 23 8 3 0 0 0
CIN
-0 0 0 -0 -0 0 0 0 0 0 0 0 0 0 0 0 0 0 0 0 0 0 0 0 0 0 0 0 0 0 0 0 0 0 0 0 0 0 0 0 0 0 -241 -277 -450
0 0 -0 0 -0 -0 0 0 0 0 0 -0 -0 0 0 0 0 0 0 0 0 0 0 0 0 0 0 0 0 0 0 0 0 0 0 0 0 0 0 0 0 0 -258 -443 -433
0 0 -0 0 -0 -0 0 0 0 0 0 0 0 0 0 0 0 0 0 0 0 0 0 0 0 0 0 0 0 0 0 0 0 0 0 0 0 0 0 0 0 0 -70 -375 -413
0 0 0 0 0 0 0 0 -0 0 -0 0 0 0 0 0 0 0 0 0 0 0 0 0 0 0 0 0 0 0 0 0 0 0 0 0 0 0 0 0 0 0 -94 -314 -377
0 0 0 -0 0 0 0 0 -0 0 0 0 0 -0 -0 0 0 0 0 0 0 0 0 0 0 0 0 0 0 0 0 0 0 0 0 0 0 0 0 0 0 0 -254 -310 -325
0 0 -0 0 -0 0 0 0 0 0 0 0 0 0 -2 0 0 0 0 0 0 0 0 0 0 0 0 0 0 0 0 0 0 0 0 0 0 0 0 0 0 0 -210 -295 -336
0 -0 -1 0 0 0 0 0 0 0 0 0 0 -0 0 0 0 0 0 0 0 0 0 0 0 0 0 0 0 0 0 0 0 0 0 0 0 0 0 0 0 0 -274 -254 -347
-1 -1 -0 -0 0 0 0 0 0 0 0 0 0 -1 0 0 0 0 0 0 0 0 0 0 0 0 0 0 0 0 0 0 0 0 0 0 0 0 0 0 0 0 0 -319 -441
-0 -0 -0 0 0 0 0 0 0 0 0 0 -0 -0 0 0 0 0 0 0 0 0 0 0 0 0 0 0 0 0 0 0 0 0 0 0 0 0 0 0 0 0 0 0 0
-2 0 0 0 0 0 0 0 0 0 0 0 -0 0 0 0 0 0 0 0 0 0 0 0 0 0 0 0 0 0 0 0 0 0 0 0 0 0 0 0 0 0 0 0 0
-2 -3 -1 -0 0 0 0 0 0 0 0 0 0 0 0 0 0 0 0 0 0 0 0 0 0 0 0 0 0 0 0 0 0 0 0 0 0 0 0 0 0 0 0 0 0
-3 -5 -5 -0 0 0 0 0 0 0 0 0 0 0 0 0 0 0 0 0 0 0 0 0 0 0 0 0 0 0 0 0 0 0 0 0 0 0 0 0 0 0 0 0 0
-1 -4 -6 -0 0 0 0 0 0 0 0 0 0 0 0 0 0 0 0 0 0 0 0 0 0 0 0 0 0 0 0 0 0 0 0 0 0 0 0 0 0 0 0 0 0
-0 -2 -0 -4 0 0 0 0 0 0 0 0 0 0 0 0 0 0 0 0 0 0 0 0 0 0 0 0 0 0 0 0 0 -2 0 0 0 0 0 0 0 0 0 0 0
-3 -6 -0 -9 0 0 0 0 0 0 0 0 0 0 0 0 0 0 0 0 0 0 0 0 0 0 0 0 0 0 0 -14 -17 -25 -0 0 0 0 0 0 0 0 0 0 0
-4 -5 -0 0 0 0 0 0 0 0 0 0 0 0 0 0 0 0 0 0 0 0 0 0 0 0 0 0 -4 -3 -6 -5 -1 -2 -1 0 0 0 0 0 0 0 0 0 0
-1 -4 -1 0 0 0 0 0 0 0 0 0 0 0 0 0 0 0 0 0 0 0 0 0 0 0 0 0 0 -1 -1 -1 0 0 -3 0 0 0 0 0 0 0 0 0 0
-2 0 0 0 0 0 0 0 0 0 0 0 0 0 0 0 0 0 0 0 0 0 0 0 0 0 0 0 -8 -1 0 -0 -3 -2 0 0 0 0 0 0 0 0 0 0 0
0 0 0 0 0 0 -1 0 0 0 0 0 0 0 0 0 0 0 0 0 0 0 0 0 0 0 0 0 0 -0 -2 -0 -2 0 -1 0 0 0 0 0 0 0 0 0 0
0 0 0 0 0 -21 -1 0 0 0 0 0 0 0 0 0 0 0 0 0 0 0 0 0 0 0 0 0 -1 -1 -2 -0 0 -0 -1 0 -26 -75 0 0 0 0 0 0 0
0 0 0 0 -6 -8 -1 0 0 0 0 0 0 -0 -0 -1 0 0 -21 -16 0 0 0 0 0 0 0 0 0 -1 0 0 -1 -2 -0 -14 -7 -2 -0 -0 0 0 0 0 0
0 0 0 0 -2 -11 -2 -2 0 0 0 0 0 0 -6 0 0 0 0 -16 0 0 0 0 0 0 0 0 -24 -39 -11 -0 0 0 -0 -10 0 -0 -7 0 0 0 0 0 0
-0 0 0 -20 -0 -0 -0 -1 -2 0 -0 -0 -0 0 -15 0 0 0 0 -16 0 0 0 0 0 0 0 0 -15 -9 -6 -11 -1 -0 -0 -1 -0 -7 -1 -1 0 0 0 0 0
-0 0 0 0 0 -2 -1 0 -2 -5 -1 -17 -2 0 0 0 -0 0 0 0 -5 0 -40 0 0 0 0 0 -2 -17 -4 -1 0 0 0 0 -2 0 -2 -1 -1 0 0 -0 0
-0 0 0 0 -0 -0 -1 0 0 0 0 -2 -4 -7 -0 0 0 0 -1 -1 -44 -67 -52 0 0 0 0 0 0 0 0 -0 -2 -15 0 0 -4 -4 -7 -6 -7 -2 0 0 0
-3 0 0 0 0 0 0 0 0 -0 -0 -1 -1 -27 -23 -10 -2 -0 -3 -14 -9 -29 -38 -48 0 0 0 0 0 0 0 0 0 -4 -5 0 -0 -12 -11 -8 0 -2 0 0 0
-1 -8 0 0 0 0 0 -1 0 -1 0 -0 -0 -0 0 0 -10 -7 0 -59 -20 0 -0 -16 -17 0 0 0 0 0 0 0 0 -1 -58 0 -0 -10 -1 -0 -0 -6 0 0 0
Wind_Speed
12 13 14 15 15 17 18 18 18 19 20 21 22 22 23 23 24 6 8 13 10 12 3 3 3 2 2 3 4 4 1 5 9 10 9 1 4 3 2 3 6 5 9 5 13
12 13 14 15 17 18 18 19 20 20 19 20 21 22 22 22 11 10 13 9 14 2 4 4 4 5 2 2 3 5 6 11 7 12 8 1 3 9 6 10 10 4 6 5 17
13 15 16 16 17 18 19 19 21 20 20 20 20 21 21 17 6 8 3 10 8 8 4 1 1 3 3 3 5 6 13 4 6 8 5 5 8 3 6 13 10 9 5 7 11
14 16 16 16 17 19 19 19 22 22 21 20 19 18 19 4 5 2 11 4 7 6 2 0 3 4 4 7 7 9 7 13 4 5 3 7 6 8 6 16 13 11 7 12 14
14 15 16 17 18 20 20 21 23 23 21 20 17 15 7 4 13 6 10 6 4 6 6 5 5 3 4 4 6 11 8 9 7 8 9 8 13 13 13 18 14 8 10 16 15
14 14 14 16 20 22 23 23 23 24 23 20 16 11 2 9 6 5 5 8 3 4 3 5 5 5 6 6 8 7 9 14 10 13 7 11 15 4 16 17 11 10 14 16 15
12 13 14 18 21 24 24 25 26 24 24 21 14 7 7 21 5 9 9 5 3 4 4 5 4 2 2 6 8 7 12 9 8 5 7 6 15 11 17 14 13 10 13 14 16
10 13 14 16 19 22 25 28 28 27 24 18 11 7 11 6 6 9 4 6 7 6 5 6 5 4 4 6 7 5 5 7 3 8 8 10 25 12 11 11 11 11 10 14 11
12 13 15 17 20 23 27 30 31 19 5 8 7 4 13 6 5 8 8 4 2 3 5 3 4 6 3 3 4 3 11 9 6 8 6 9 14 8 7 7 9 10 9 12 12
12 15 16 18 20 23 29 31 20 3 7 5 3 3 7 3 0 3 6 3 3 2 2 3 4 2 1 4 10 5 7 4 6 4 3 6 9 9 8 6 11 10 7 13 14
13 15 18 20 21 23 18 7 7 3 0 8 6 9 9 6 4 3 2 4 3 4 5 2 3 9 8 8 6 6 5 5 5 8 6 8 13 13 9 8 10 12 13 10 17
13 14 17 20 21 23 7 5 8 9 16 14 23 24 24 6 9 8 4 2 5 5 3 1 8 8 6 7 7 8 9 9 7 7 10 8 12 14 14 9 12 14 17 15 8
13 15 17 19 23 4 3 3 11 13 6 13 9 10 10 17 14 11 7 5 4 7 7 8 7 2 6 9 10 9 7 4 7 9 16 4 13 15 14 8 7 12 14 8 16
13 14 14 18 6 6 3 13 15 7 5 10 6 7 6 5 9 10 9 7 4 10 6 6 4 5 6 7 6 10 6 9 5 6 9 3 9 9 8 9 5 9 8 8 14
10 12 11 9 4 4 6 14 15 2 6 1 3 5 10 6 3 2 4 3 5 5 6 6 5 4 6 11 5 5 4 4 6 8 7 8 7 8 5 10 10 8 7 8 12
10 13 11 4 3 5 8 12 2 4 9 7 3 3 3 3 2 3 4 3 3 3 1 5 1 5 6 3 8 1 3 4 6 7 9 10 8 5 5 9 5 5 4 10 12
10 11 9 0 4 4 6 5 4 6 8 10 8 9 9 4 3 3 6 6 6 3 5 2 6 3 3 2 1 8 2 2 5 7 7 6 9 11 8 8 12 13 13 7 11
10 12 6 6 3 4 4 3 5 3 6 9 9 18 8 5 7 6 5 5 5 2 2 5 4 9 7 7 6 11 6 4 4 3 3 5 6 6 10 13 5 10 12 10 10
6 4 4 4 3 4 2 2 4 2 6 12 15 8 4 8 5 5 6 6 7 10 7 5 5 2 6 5 6 3 8 1 4 3 1 4 5 5 11 13 14 16 14 8 7
2 3 4 3 5 2 2 5 4 6 9 6 5 8 9 14 9 7 8 3 5 9 3 4 3 3 2 5 2 4 1 3 3 4 3 4 5 3 12 14 15 16 18 16 4
3 4 4 3 3 3 3 4 5 7 10 8 7 7 8 15 10 5 3 3 1 1 5 2 3 4 5 4 7 4 3 3 2 3 2 4 0 5 9 12 13 15 15 15 5
2 2 3 2 1 1 2 3 2 5 10 9 8 11 3 14 9 7 5 3 6 2 4 1 3 4 8 5 10 5 5 5 2 3 4 0 3 6 8 13 17 15 13 14 16
0 3 3 3 2 3 4 7 8 13 10 5 7 10 2 5 8 10 9 8 2 3 8 3 2 4 3 5 4 2 5 7 4 2 4 3 2 3 10 14 17 12 13 14 15
1 3 4 3 2 3 2 4 5 4 7 7 9 11 14 6 12 8 8 8 5 3 8 3 3 1 2 1 3 5 7 6 8 3 2 5 0 2 5 9 12 12 11 13 16
3 3 3 2 1 3 2 2 4 5 7 3 4 8 12 5 4 8 3 3 4 3 4 4 2 1 6 8 6 10 14 12 12 9 6 3 7 7 9 9 7 9 10 14 17
2 3 0 2 2 2 3 3 9 5 4 8 9 8 8 6 9 11 3 1 3 3 3 1 2 1 4 7 8 13 13 14 13 13 8 10 19 2 5 11 9 7 11 14 16
2 0 2 3 0 3 4 4 9 10 10 8 12 13 12 14 7 7 7 3 1 1 2 3 3 2 4 5 10 8 2 9 10 10 8 8 9 6 7 5 14 13 13 10 8
Wind_Direction
343 340 336 333 338 337 333 331 331 331 331 329 328 328 326 326 318 288 235 216 196 233 120 279 236 205 103 205 187 129 197 215 196 185 237 250 6 196 295 282 331 298 161 219 127
349 345 342 337 332 332 330 328 326 326 325 325 324 326 327 323 310 268 246 215 213 189 177 204 256 151 208 223 216 171 210 213 206 222 239 357 328 317 345 320 303 317 317 117 143
340 339 335 328 326 326 325 323 319 320 320 321 323 328 324 327 296 249 258 216 231 206 230 230 258 159 208 158 217 220 241 215 225 230 243 277 276 246 300 292 257 264 245 199 159
335 331 334 332 330 327 322 316 314 315 315 315 319 326 323 316 291 88 50 160 249 162 162 292 112 163 216 219 220 262 235 228 247 235 258 245 278 271 200 257 269 267 210 185 174
327 325 327 327 325 322 317 313 312 311 309 307 311 322 349 334 255 277 338 349 340 139 179 187 180 209 223 236 253 242 251 261 256 250 243 263 258 255 274 267 271 261 169 197 189
326 323 326 324 322 320 316 311 307 305 302 297 301 308 246 276 263 289 8 332 234 181 196 189 214 205 265 243 240 297 269 258 243 254 246 258 270 239 269 266 273 196 201 206 191
323 327 324 322 322 319 315 309 305 299 297 289 282 261 238 250 275 309 328 245 227 185 202 202 179 149 276 310 250 255 268 278 251 217 219 223 273 231 253 265 259 217 212 215 206
328 323 319 320 319 317 314 311 305 302 296 278 237 213 249 248 242 276 198 282 227 231 226 231 173 211 174 263 308 267 261 267 218 211 233 151 264 264 248 247 247 240 218 212 205
323 325 322 323 323 323 319 311 303 311 325 135 152 205 264 276 218 242 181 218 212 254 223 210 142 201 240 222 301 261 263 277 288 224 221 168 256 244 269 274 255 252 197 214 208
330 329 326 322 325 327 321 312 296 302 96 153 127 272 259 269 168 272 190 218 236 146 17 117 79 220 54 139 239 239 268 272 262 300 319 277 265 275 267 278 266 258 237 204 207
332 331 326 323 327 329 331 342 7 312 347 254 226 253 289 304 302 208 78 347 130 96 162 244 149 221 212 226 253 275 262 249 278 278 293 263 277 279 283 280 285 283 267 207 200
331 331 327 325 326 326 337 33 20 298 295 254 248 250 250 307 298 271 156 164 148 189 135 338 249 235 221 244 255 262 267 277 275 272 305 292 286 286 283 254 249 264 259 222 157
327 332 329 328 321 28 299 36 332 337 270 289 249 241 237 195 229 243 175 169 193 180 185 186 221 165 203 248 252 245 248 258 263 300 297 307 295 286 276 243 263 272 241 203 182
330 330 332 339 41 324 320 336 327 313 303 275 243 243 163 179 224 187 184 147 198 193 176 225 231 212 210 232 234 267 226 251 303 338 277 47 282 279 284 277 257 267 225 202 179
324 331 332 350 277 340 315 326 320 59 312 293 171 146 161 211 163 162 166 96 175 168 137 233 180 175 214 235 194 246 296 347 322 306 292 265 264 278 246 286 287 264 241 210 200
332 330 327 1 349 254 320 316 24 53 252 311 118 184 170 264 332 102 122 85 146 134 235 233 49 164 210 250 221 127 27 289 249 273 246 215 224 249 225 240 280 296 231 217 206
328 326 319 36 253 335 345 356 68 218 329 349 351 344 295 221 207 146 160 174 166 146 239 321 223 187 171 175 3 181 218 251 205 213 240 191 212 242 271 263 278 284 291 238 192
339 312 271 226 230 28 5 60 209 340 289 359 327 306 209 183 226 178 135 181 228 154 138 184 303 165 188 192 193 194 203 214 243 216 281 214 249 232 229 245 297 313 263 278 203
355 328 304 287 160 117 96 177 231 243 348 342 328 341 9 1 345 139 196 201 193 178 191 173 265 168 171 158 149 172 215 28 334 237 307 254 287 280 1 15 12 358 339 274 246
0 350 282 308 152 108 190 244 264 344 347 332 317 355 331 343 343 339 176 202 175 183 179 197 300 254 154 123 178 176 173 136 167 293 241 249 231 12 8 4 1 8 359 328 150
45 4 276 135 110 88 233 244 309 341 346 339 338 317 325 322 317 276 217 17 30 66 159 148 137 289 119 193 169 166 188 233 253 244 292 315 25 40 350 347 3 12 5 337 330
104 356 270 37 103 222 219 238 294 319 323 305 300 277 189 318 319 315 353 344 295 101 65 36 137 239 236 234 193 162 145 184 218 184 218 281 249 333 348 4 17 16 19 18 47
15 265 336 80 186 224 271 303 314 297 290 289 297 312 286 316 311 297 349 327 359 94 156 202 23 321 341 24 56 134 190 186 224 169 245 224 243 5 351 1 9 14 26 39 45
123 335 322 62 178 139 9 276 283 284 265 263 260 282 282 287 282 292 317 292 354 83 63 73 112 116 258 262 316 303 306 271 223 203 304 238 245 112 314 328 334 360 36 45 47
188 232 201 283 99 333 280 292 276 285 251 246 278 264 287 272 289 273 241 303 13 47 47 73 104 8 291 291 275 268 270 265 225 231 244 302 248 201 185 198 279 350 33 46 47
215 171 141 272 283 25 309 252 286 317 291 295 250 281 310 253 253 282 233 262 288 66 99 32 138 77 287 306 333 301 276 253 250 224 248 273 270 261 180 167 138 81 45 43 48
156 245 89 267 311 68 233 271 286 307 291 288 312 283 279 269 236 240 262 223 248 105 118 110 121 83 270 328 317 292 224 291 269 193 214 246 243 182 123 64 133 120 95 77 73